DELTA 1 DEB, 7076

Orbit data source: Space-Track

DELTA 1 DEB, 7076 is space debris in SSO originally from a launch on Tue, 06 Nov 1973 UTC launched from the Air Force Western Test Range (AFWTR). Debris objects in space refer to the collection of defunct objects orbiting the Earth. Examples of debris include non-operational satellites, rocket bodies, and fragments generated from explosions, collisions, or faulty payload assembly.

Loading next visibility...
Identifier
7076, 1973-086BU
Orbit
SSO
Country
Flag of USUS
Related business
Manufacturer
Unknown
Mission
Spacecraft
Bus & Motor
Unknown
Mass
Unknown
Launch date (UTC)
1973-11-06 (53 years ago)
Launch vehicle
Unknown
Launch site
Air Force Western Test Range (AFWTR)
Object type
Payload
Rocket body
Debris
Shape & HBR
Unknown shape, 0.2 m
Radar Cross Section
Medium (>0.1 m² and <1 m²)

Expand to show TLE details & history
Last TLE update: 2 days ago

TLE from 2 days ago
0 DELTA 1 DEB
1  7076U 73086BU  26171.47555330 -.00000030  00000-0  11993-3 0  9993
2  7076 102.2981 172.6040 0013350  65.4796  89.2340 12.39868003380720
Epoch: 2026-06-20T11:24Z
TLE epoch observation values (Epoch: 2026-06-20T11:24:47.805Z)
Latitude
24.54492°
Longitude
-81.59928°
Altitude
1,509.671 km
Speed
7.112 km/s
True Right ascension
23h 53m 09s
True Declination
24° 25' 39"
Sunlit
Object was in daylight at epoch
Visualization orbit readout
Latitude
Unknown
Longitude
Unknown
Altitude
Unknown
Speed
Unknown
Apparent Right ascension
Unknown
Apparent Declination
Unknown
Sunlit
N/A
Visualization observer readout
Local Sidereal Time
00:50:12
Azimuth
Unknown
Elevation
Unknown
Doppler factor
Unknown
Orbital elements
Apogee altitude
1,515.279 km
Perigee altitude
1,494.232 km
Semi-major axis
7,882.893 km
Eccentricity
0.00134
Inclination
102.2981°
RAAN
172.604°
Arg. of periapsis
65.4796°
True anomaly
89.38697°
Mean anomaly
89.234°
Eccentric anomaly
89.31048°
Mean motion
3.10109 °/min
Orbital period
116.09 mins
BSTAR
0.00011993
Loading maneuver chart data...
Computing Atmospheric mass density...
Loading historical data...
Loading historical data...
Loading historical data...
Loading historical data...
Loading historical data...
Loading historical data...
Loading historical data...

Documentation

Showing up to 5 results
|